[TLELIST] Archives

 

[list_settings.list_name] Current TLEs

June 21st 2022 PST

HST 1 20580U 90037B 22171.68137959 .00001958 00000-0 10477-3 0 9990 2 20580 28.4687 147.4120 0002735 72.7650 97.9737 15.10590389566702 ISS (ZARYA) 1 25544U 98067A 22172.39156889 -.00020759 00000-0 -35927-3 0 9997 2 25544 51.6428 315.7624 0004429 285.9179 168.8032 15.49791165345835 CXO 1 25867U 99040B 22173.33443659 .00000171 00000-0 00000-0 0 9991 2 25867 45.1972 234.7047 8826606 234.3706 0.0055 0.37806563 11815 ____________________________________________________________________ These 2-Line ...Continue Reading

[list_settings.list_name] Current TLEs

June 20th 2022 PST

HST 1 20580U 90037B 22170.34894778 .00001990 00000-0 10672-3 0 9994 2 20580 28.4685 156.2415 0002700 59.5074 50.9343 15.10585802566762 ISS (ZARYA) 1 25544U 98067A 22171.41068532 .00008905 00000-0 16493-3 0 9990 2 25544 51.6451 320.6199 0004022 284.3313 94.1421 15.49805762345680 CXO 1 25867U 99040B 22173.33443659 .00000171 00000-0 00000-0 0 9991 2 25867 45.1972 234.7047 8826606 234.3706 0.0055 0.37806563 11815 ____________________________________________________________________ These 2-Line ...Continue Reading

[list_settings.list_name] Current TLEs

June 19th 2022 PST

HST 1 20580U 90037B 22166.72259426 .00001958 00000-0 10487-3 0 9994 2 20580 28.4685 180.2715 0002576 22.0506 128.8465 15.10573416565956 ISS (ZARYA) 1 25544U 98067A 22166.98291539 .00007389 00000-0 13721-3 0 9997 2 25544 51.6447 342.5501 0004194 242.9750 255.0959 15.50021518344998 CXO 1 25867U 99040B 22168.04708049 .00000414 00000-0 00000+0 0 9999 2 25867 45.2910 235.0204 8817742 234.2072 0.1320 0.37810622 22957 ____________________________________________________________________ These 2-Line ...Continue Reading

[list_settings.list_name] Current TLEs

June 18th 2022 PST

HST 1 20580U 90037B 22166.72259426 .00001958 00000-0 10487-3 0 9994 2 20580 28.4685 180.2715 0002576 22.0506 128.8465 15.10573416565956 ISS (ZARYA) 1 25544U 98067A 22166.98291539 .00007389 00000-0 13721-3 0 9997 2 25544 51.6447 342.5501 0004194 242.9750 255.0959 15.50021518344998 CXO 1 25867U 99040B 22168.04708049 .00000414 00000-0 00000+0 0 9999 2 25867 45.2910 235.0204 8817742 234.2072 0.1320 0.37810622 22957 ____________________________________________________________________ These 2-Line ...Continue Reading

[list_settings.list_name] Current TLEs

June 17th 2022 PST

HST 1 20580U 90037B 22166.72259426 .00001958 00000-0 10487-3 0 9994 2 20580 28.4685 180.2715 0002576 22.0506 128.8465 15.10573416565956 ISS (ZARYA) 1 25544U 98067A 22166.98291539 .00007389 00000-0 13721-3 0 9997 2 25544 51.6447 342.5501 0004194 242.9750 255.0959 15.50021518344998 CXO 1 25867U 99040B 22168.04708049 .00000414 00000-0 00000+0 0 9999 2 25867 45.2910 235.0204 8817742 234.2072 0.1320 0.37810622 22957 ____________________________________________________________________ These 2-Line ...Continue Reading

[list_settings.list_name] Current TLEs

June 16th 2022 PST

HST 1 20580U 90037B 22166.72259426 .00001958 00000-0 10487-3 0 9994 2 20580 28.4685 180.2715 0002576 22.0506 128.8465 15.10573416565956 ISS (ZARYA) 1 25544U 98067A 22166.98291539 .00007389 00000-0 13721-3 0 9997 2 25544 51.6447 342.5501 0004194 242.9750 255.0959 15.50021518344998 CXO 1 25867U 99040B 22168.04708049 .00000414 00000-0 00000+0 0 9999 2 25867 45.2910 235.0204 8817742 234.2072 0.1320 0.37810622 22957 ____________________________________________________________________ These 2-Line ...Continue Reading

[list_settings.list_name] Current TLEs

June 15th 2022 PST

HST 1 20580U 90037B 22166.10860096 .00001963 00000-0 10513-3 0 9993 2 20580 28.4685 184.3400 0002543 15.5704 29.7703 15.10571522566123 ISS (ZARYA) 1 25544U 98067A 22166.38955543 .00007162 00000-0 13329-3 0 9996 2 25544 51.6446 345.4902 0004314 240.1425 184.7559 15.50011409344900 CXO 1 25867U 99040B 22168.04708049 .00000414 00000-0 00000+0 0 9999 2 25867 45.2910 235.0204 8817742 234.2072 0.1320 0.37810622 22957 ____________________________________________________________________ These 2-Line ...Continue Reading

[list_settings.list_name] Current TLEs

June 14th 2022 PST

HST 1 20580U 90037B 22164.80944191 .00001656 00000-0 87022-4 0 9996 2 20580 28.4685 192.9486 0002497 1.5406 164.8981 15.10566355565669 ISS (ZARYA) 1 25544U 98067A 22165.35708090 .00006653 00000-0 12446-3 0 9998 2 25544 51.6447 350.6047 0004300 236.5776 183.2892 15.49993677344742 CXO 1 25867U 99040B 22165.40355389 .00000439 00000-0 00000-0 0 9999 2 25867 45.3887 235.2529 8814178 234.0816 0.1747 0.37807395 11793 ____________________________________________________________________ These 2-Line ...Continue Reading

[list_settings.list_name] Current TLEs

June 13th 2022 PST

HST 1 20580U 90037B 22163.81801868 .00001456 00000-0 75206-4 0 9998 2 20580 28.4685 199.5181 0002460 350.7148 173.6328 15.10562496565515 ISS (ZARYA) 1 25544U 98067A 22164.39223365 .00005843 00000-0 11036-3 0 9992 2 25544 51.6451 355.3842 0004331 231.1709 201.3316 15.49976947344590 CXO 1 25867U 99040B 22165.40355389 .00000439 00000-0 00000-0 0 9999 2 25867 45.3887 235.2529 8814178 234.0816 0.1747 0.37807395 11793 ____________________________________________________________________ These 2-Line ...Continue Reading

[list_settings.list_name] Current TLEs

June 12th 2022 PST

HST 1 20580U 90037B 22162.82698043 .00001449 00000-0 74824-4 0 9994 2 20580 28.4686 206.0850 0002417 339.6506 184.7178 15.10559998565361 ISS (ZARYA) 1 25544U 98067A 22163.42462611 .00005297 00000-0 10085-3 0 9990 2 25544 51.6446 0.1769 0004355 227.2478 202.5341 15.49962408344444 CXO 1 25867U 99040B 22165.40355389 .00000439 00000-0 00000-0 0 9999 2 25867 45.3887 235.2529 8814178 234.0816 0.1747 0.37807395 11793 ____________________________________________________________________ These 2-Line ...Continue Reading
  • This mailing list is a public mailing list - anyone may join or leave, at any time.
  • This mailing list is announce-only.

International Space Station (ISS) / Hubble Space Telescope (HST) / Chandra X-Ray Observatory Orbital Data via EMAIL

Privacy Policy:

Private list